• MPC Preparation (Info)

  • MPEC 2024-G111 : 2024 FG6

    The following Minor Planet Electronic Circular may be linked-to from your own Web pages, but must not otherwise be redistributed electronically.

    A form allowing access to any MPEC is at the bottom of this page.


    Read MPEC 2024-G110 Read MPEC 2024-G112


    M.P.E.C. 2024-G111                                Issued 2024 April 9, 11:49 UT
    
         The Minor Planet Electronic Circulars contain information on unusual
             minor planets, routine data on comets and natural satellites,
             and occasional editorial announcements.  They are published
        on behalf of Division F of the International Astronomical Union by the
              Minor Planet Center, Smithsonian Astrophysical Observatory,
                              Cambridge, MA 02138, U.S.A.
    			  
                 Prepared using the Tamkin Foundation Computer Network
    
                                  MPC@CFA.HARVARD.EDU
                URL https://www.minorplanetcenter.net/    ISSN 1523-6714
    
                                    2024 FG6                                 
    
    
    Observations:
         K24F06G* C2024 03 29.27103610 01 31.064+20 37 37.11         21.66wXEG111F52
         K24F06G  C2024 03 29.29842810 01 29.325+20 36 32.86         21.63wXEG111F52
         K24F06G  C2024 03 29.31229410 01 28.470+20 36 00.51         21.46wXEG111F52
         K24F06G  C2024 04 03.25909509 58 15.184+17 16 53.18         21.61wXEG111F51
         K24F06G  C2024 04 03.27097709 58 14.719+17 16 24.34         21.79wXEG111F51
         K24F06G  C2024 04 03.28294609 58 14.243+17 15 54.89         21.68wXEG111F51
         K24F06G  C2024 04 05.55096 09 57 24.64 +15 42 17.0          21.4 rVEG111O18
         K24F06G  C2024 04 05.55741 09 57 24.49 +15 42 01.0          21.3 rVEG111O18
         K24F06G  C2024 04 05.56390 09 57 24.32 +15 41 45.1          21.7 rVEG111O18
         K24F06G KC2024 04 08.16970 09 56 56.55 +13 53 29.0          21.3 RVEG111691
         K24F06G KC2024 04 08.17914 09 56 56.40 +13 53 05.4          21.5 RVEG111691
         K24F06G KC2024 04 08.18859 09 56 56.22 +13 52 42.1          21.5 RVEG111691
         K24F06G KC2024 04 08.24331109 56 55.388+13 50 23.93         21.81GVEG111V06
         K24F06G KC2024 04 08.24465109 56 55.385+13 50 21.77               VEG111V06
         K24F06G KC2024 04 08.24599209 56 55.367+13 50 18.35               VEG111V06
         K24F06G KC2024 04 08.24733409 56 55.345+13 50 13.88         21.75GVEG111V06
    
    Observer details:
    691 Steward Observatory, Kitt Peak-Spacewatch.  Observer C. Lejoly.  0.9-m f/3
        reflector + CCD.
    F51 Pan-STARRS 1, Haleakala.  Observers J. Herman, T. Lowe, P. Minguez, A.
        Schultz, I. Smith.  Measurers K. Chambers, T. de Boer, J. Fairlamb, H.
        Gao, M. Huber, C.-C. Lin, E. Magnier, Y. Ramanjooloo, R. Wainscoat, R.
        Weryk.  1.8-m Ritchey-Chretien + CCD.
    F52 Pan-STARRS 2, Haleakala.  Observers J. Herman, T. Lowe, P. Minguez, A.
        Schultz, I. Smith.  Measurers K. Chambers, T. de Boer, J. Fairlamb, H.
        Gao, M. Huber, C.-C. Lin, E. Magnier, Y. Ramanjooloo, R. Wainscoat, R.
        Weryk.  1.8-m Ritchey-Chretien + CCD.
    O18 WFST, Lenghu.  Observers Z. Lou, Z. Q. Li, S. X. Li, Q. Y. Hai, K. Yan.
        Measurers B. Li, H. B. Zhao, Z. J. Xu, G. T. Zhaori.  2.5-m f/2.48
        reflector + CCD.
    V06 Catalina Sky Survey-Kuiper.  Observer J. K. Hogan.  Measurers T. Beuden,
        V. F. Carvajal, D. Fay, J. B. Fazekas, D. C. Fuls, A. R. Gibbs, A. D.
        Grauer, H. Groeller, J. K. Hogan, R. A. Kowalski, S. M. Larson, G. J.
        Leonard, D. Rankin, R. L. Seaman, F. C. Shelly, K. W. Wierzchos.  1.55-m
        reflector + 1K CCD.
    
    Orbital elements:
    2024 FG6                                                 Earth MOID = 0.1908 AU
    Epoch 2024 Mar. 31.0 TT = JDT 2460400.5                 Veres                   
    M 341.17732              (2000.0)            P               Q                  
    n   0.51950051     Peri.  201.86871     -0.85845991     +0.51197433             
    a   1.5325409      Node     9.11018     -0.43741838     -0.69983047             
    e   0.2270461      Incl.   11.09798     -0.26779047     -0.49811605             
    P   1.90           H   22.51          G   0.15           U   7                  
    Residuals in seconds of arc
    240329 F52  0.1-  0.0     240405 O18  0.3-  0.3-    240408 V06  0.2-  0.5-
    240329 F52  0.1-  0.1-    240405 O18  0.1-  0.4-    240408 V06  0.1+  0.7+
    240329 F52  0.3+  0.1+    240405 O18  0.0   0.3-    240408 V06  0.1+  0.7+
    240403 F51  0.0   0.0     240408 691  0.2+  0.3-    240408 V06  0.0   0.4-
    240403 F51  0.0   0.1+    240408 691  0.2+  0.3-
    240403 F51  0.0   0.0     240408 691  0.3-  0.0
    
    Ephemeris:
    2024 FG6                 a,e,i = 1.53, 0.23, 11                  q = 1.1846
    Date    TT    R. A. (2000) Decl.     Delta      r    Elong.  Phase     V
    2024 03 10    10 30 56.6 +31 02 17   0.2936  1.2572   150.6    22.8    21.4
    ...
    2024 03 25    10 05 51.4 +23 21 08   0.2821  1.2255   139.5    31.9    21.6
    ...
    2024 04 02    09 58 52.8 +18 08 21   0.2853  1.2118   132.9    37.2    21.7
    ...
    2024 04 08    09 56 57.3 +14 00 45   0.2912  1.2033   128.2    40.9    21.8
    2024 04 09    09 56 54.3 +13 19 02   0.2925  1.2020   127.4    41.4    21.9
    2024 04 10    09 56 55.9 +12 37 17   0.2938  1.2008   126.7    42.0    21.9
    ...
    2024 04 16    09 58 36.8 +08 27 10   0.3031  1.1943   122.6    45.1    22.0
    ...
    2024 04 24    10 04 31.7 +03 00 33   0.3186  1.1882   117.8    48.5    22.2
    ...
    2024 05 09    10 24 49.7 -06 30 24   0.3552  1.1848   111.1    52.6    22.6
    
    M. P. C. Staff               (C) Copyright 2024 MPC           M.P.E.C. 2024-G111
    


    Read MPEC 2024-G110 Read MPEC 2024-G112


    MPEC number:

    Enter an MPEC number in one of the following forms:

    • 1997-B01 (the full form)
    • J97B01 (the packed version of the full form)
    • B01 (the abbreviated form)